Flag for Uzbekistan Weather past 2 weeks in Tashkent, Uzbekistan

Now
81 °F

Clear.


Feels Like: 80 °F
Forecast: 74 / 104 °F
Wind: 8 mph from Northeast

Location: Tashkent

Current Time: Jun 30, 2015 at 4:57:57 AM

Latest Report: Jun 30, 2015 at 4:00 AM


Visibility: 10 mi

Pressure: 29.77 "Hg

Humidity: 34%

Dew point: 50 °F

Location of TashkentLocation

Historic Weather in Tashkent — Graph

°F

Tashkent temperature yesterday

Maximum temperature yesterday: 102 °F (at 2:30 PM)
Minimum temperature yesterday: 77 °F (at 4:00 AM)
Average temperature yesterday: 91 °F

Past Weeks' High & Low Weather Summary

 TemperatureHumidityPressure
High104 °F (Jun 20, 1:00 PM)57% (Jun 23, 8:30 PM)29.98 "Hg (Jun 23, 8:30 PM)
Low63 °F (Jun 15, 4:30 AM)7% (Jun 18, 3:00 PM)29.50 "Hg (Jun 23, 12:00 AM)
Average85 °F26%29.66 "Hg
* Reported Jun 15 3:00 AM — Jun 30 3:30 AM, Tashkent, Weather by CustomWeather, © 2015

Note: Actual official high and low records may vary slightly from our data, if they occured in-between our weather recording intervals... More about our weather records

Advertising

Tashkent weather history for previous 24 hours

 ConditionsComfort  
Time TempWeatherWind HumidityBarometerVisibility
3:30 AM
Tue, Jun 30
81 °FClear.8 mph34%29.77 "Hg10 mi
3:00 AM81 °FClear.7 mph34%29.77 "Hg10 mi
2:30 AM81 °FClear.9 mph34%29.77 "Hg10 mi
2:00 AM82 °FClear.9 mph35%29.77 "Hg10 mi
1:30 AM82 °FClear.8 mph35%29.77 "Hg10 mi
1:00 AM82 °FClear.9 mph35%29.77 "Hg10 mi
12:30 AM82 °FClear.9 mph37%29.77 "Hg10 mi
12:00 AM84 °FClear.7 mph35%29.77 "Hg10 mi
11:30 PM
Mon, Jun 29
84 °FClear.8 mph37%29.80 "Hg10 mi
11:00 PM86 °FPassing clouds.7 mph33%29.80 "HgN/A
10:30 PM88 °FClear.12 mph31%29.80 "Hg10 mi
10:00 PM90 °FClear.1 mph27%29.80 "Hg10 mi
9:30 PM90 °FClear.3 mph27%29.80 "Hg10 mi
9:00 PM91 °FClear.No wind24%29.80 "Hg10 mi
8:30 PM95 °FPassing clouds.5 mph22%29.80 "HgN/A
8:00 PM95 °FPassing clouds.6 mph25%29.77 "HgN/A
7:30 PM93 °FScattered clouds.7 mph26%29.77 "HgN/A
7:00 PM95 °FScattered clouds.8 mph23%29.77 "HgN/A
6:30 PM99 °FScattered clouds.8 mph18%29.77 "HgN/A
6:00 PM100 °FPassing clouds.7 mph16%29.77 "HgN/A
5:30 PM100 °FPassing clouds.7 mph16%29.77 "HgN/A
5:00 PM102 °FSunny.6 mph14%29.77 "Hg10 mi
4:30 PM100 °FPassing clouds.8 mph16%29.77 "HgN/A
4:00 PM100 °FPassing clouds.8 mph16%29.77 "HgN/A
3:30 PM100 °FPassing clouds.12 mph17%29.77 "HgN/A
3:00 PM102 °FPassing clouds.5 mph15%29.77 "HgN/A
2:30 PM102 °FPassing clouds.8 mph15%29.77 "HgN/A
2:00 PM100 °FPassing clouds.12 mph17%29.77 "HgN/A
1:30 PM100 °FPassing clouds.7 mph16%29.77 "HgN/A
1:00 PM100 °FSunny.5 mph17%29.80 "Hg10 mi
12:30 PM99 °FPassing clouds.10 mph17%29.80 "HgN/A
12:00 PM100 °FPassing clouds.8 mph17%29.80 "HgN/A
11:30 AM99 °FSunny.6 mph17%29.80 "Hg10 mi
11:00 AM99 °FSunny.7 mph18%29.80 "Hg10 mi
10:30 AM97 °FSunny.5 mph19%29.80 "Hg10 mi
10:00 AM97 °FPassing clouds.6 mph19%29.80 "HgN/A
9:30 AM93 °FPassing clouds.6 mph23%29.80 "HgN/A
9:00 AM93 °FPassing clouds.6 mph23%29.80 "HgN/A
8:30 AM90 °FPassing clouds.8 mph26%29.80 "HgN/A
8:00 AM88 °FSunny.10 mph29%29.80 "Hg10 mi
7:30 AM86 °FSunny.10 mph29%29.80 "Hg10 mi
7:00 AM84 °FSunny.9 mph31%29.80 "Hg10 mi
6:30 AM82 °FSunny.6 mph32%29.77 "Hg10 mi
6:00 AM81 °FSunny.5 mph34%29.77 "Hg10 mi
5:30 AM79 °FSunny.7 mph37%29.77 "Hg10 mi
5:00 AM77 °FSunny.7 mph42%29.77 "Hg10 mi
4:30 AM77 °FClear.6 mph42%29.77 "Hg10 mi
4:00 AM77 °FClear.6 mph42%29.77 "Hg10 mi
Weather by CustomWeather, © 2015

See weather overviewHow to use our weather pages